Location: Tierz
(42.1336°N, 0.3549°W)
Time: 16:11:01
(UTC+00:00)

YAOGAN 1 - Pass Details

Date: 29 October 2020
Orbit: 618 x 620 km, 97.9° (Epoch: 26 November)

Event Time Altitude Azimuth Distance (km) Brightness Sun altitude
Rises 18:49:44 0° 171° (S) 2,882 5.9 -21.1°
Reaches altitude 10° 18:51:55 10° 173° (S) 1,981 5.1 -21.5°
Maximum altitude 18:56:13 72° 258° (WSW) 655 2.7 -22.3°
Drops below altitude 10° 19:00:33 10° 343° (NNW) 1,996 5.4 -23.1°
Sets 19:02:46 0° 346° (NNW) 2,906 6.2 -23.5°
